Weather History for KGFK - November, 2011

Change the Weather History Date:

Wednesday, November 16, 2011

  Actual Average Record
Temperature  
Mean Temperature 18 °F 26 °F  
Max Temperature 24 °F 35 °F 62 °F (2001)
Min Temperature 12 °F 17 °F -6 °F (1959)
Degree Days  
Heating Degree Days 47 39  
Month to date heating degree days 466 555  
Since 1 July heating degree days 1161 1586  
Cooling Degree Days 0 0  
Month to date cooling degree days 0 0  
Year to date cooling degree days 538 379  
Moisture  
Dew Point 11 °F    
Average Humidity 78    
Maximum Humidity 88    
Minimum Humidity 68    
Precipitation  
Precipitation T in 0.03 in 0.50 in (1988)
Month to date precipitation 0.07 0.60  
Year to date precipitation 19.02 19.85  
Snow  
Snow T in 0.30 in 5.00 in (1988)
Month to date snowfall 0.8 3.3  
Since 1 July snowfall 0.8 4.8  
Since 1 September snowfall 0.8 4.8  
Snow Depth 1.00 in    
Sea Level Pressure  
Sea Level Pressure 30.06 in    
Wind  
Wind Speed 13 mph (WNW)    
Max Wind Speed 24 mph    
Max Gust Speed 30 mph    
Visibility 10 miles    
Events      
T = Trace of Precipitation, MM = Missing Value Source: NWS Daily Summary

Daily Weather History Graph

Daily Weather History Graph

Search for Another Location

Airport or City:

Trip Planner

Search our weather history database for the weather conditions in past years. The results will help you decide how hot, cold, wet, or windy it might be!

Date:

Astronomy

Nov. 16, 2011 Rise Set
Actual Time 7:36 AM CST 4:50 PM CST
Civil Twilight 7:02 AM CST 5:24 PM CST
Nautical Twilight 6:24 AM CST 6:01 PM CST
Astronomical Twilight 5:47 AM CST 6:38 PM CST
Moon 10:09 PM CST (11/16) 12:10 PM CST (11/16)
Length of Visible Light 10h 22m
Length of Day
9h 14m
Waning Gibbous, 70% of the Moon is Illuminated
Nov 16
Waning Gibbous
Nov 18
Last Quarter
Nov 25
New
Dec 2
First Quarter
Dec 10
Full

Hourly Weather History & Observations

Time (CST) Temp. Windchill Dew Point Humidity Pressure Visibility Wind Dir Wind Speed Gust Speed Precip Events Conditions
12:53 AM 21.0 °F 8.6 °F 14.0 °F 74% 29.92 in 10.0 mi West 12.7 mph - N/A   Mostly Cloudy
1:53 AM 17.1 °F 7.6 °F 12.0 °F 81% 29.93 in 10.0 mi West 6.9 mph - N/A   Partly Cloudy
2:53 AM 17.1 °F 5.8 °F 10.9 °F 77% 29.94 in 10.0 mi West 9.2 mph - N/A   Clear
3:53 AM 15.1 °F 2.5 °F 10.0 °F 80% 29.95 in 10.0 mi WSW 10.4 mph - N/A   Clear
4:53 AM 14.0 °F 2.0 °F 9.0 °F 80% 29.96 in 10.0 mi West 9.2 mph - N/A   Partly Cloudy
5:53 AM 14.0 °F 2.0 °F 10.0 °F 84% 29.98 in 10.0 mi West 9.2 mph - N/A   Clear
6:53 AM 14.0 °F 2.0 °F 9.0 °F 80% 30.00 in 10.0 mi West 9.2 mph - N/A   Clear
7:53 AM 15.1 °F 2.5 °F 10.0 °F 80% 30.02 in 10.0 mi West 10.4 mph - N/A   Partly Cloudy
8:53 AM 19.0 °F 5.0 °F 12.9 °F 77% 30.03 in 10.0 mi West 15.0 mph - N/A   Overcast
9:53 AM 19.4 °F 3.6 °F 12.2 °F 74% 29.99 in 10.0 mi WNW 19.6 mph 26.5 mph N/A   Scattered Clouds
10:53 AM 19.9 °F 5.7 °F 12.9 °F 74% 30.06 in 10.0 mi WNW 16.1 mph 27.6 mph N/A   Overcast
11:05 AM 21.2 °F 5.6 °F 12.2 °F 68% 30.01 in 10.0 mi WNW 20.7 mph 27.6 mph N/A   Mostly Cloudy
11:53 AM 21.9 °F 7.8 °F 14.0 °F 72% 30.07 in 10.0 mi WNW 17.3 mph 28.8 mph N/A   Overcast
12:53 PM 21.9 °F 7.3 °F 15.1 °F 75% 30.07 in 10.0 mi WNW 18.4 mph 26.5 mph N/A   Overcast
1:53 PM 23.0 °F 8.7 °F 15.1 °F 72% 30.09 in 10.0 mi WNW 18.4 mph 26.5 mph N/A   Mostly Cloudy
2:53 PM 24.1 °F 9.8 °F 16.0 °F 71% 30.10 in 10.0 mi WNW 19.6 mph 25.3 mph 0.00 in   Mostly Cloudy
3:53 PM 23.0 °F 7.2 °F 15.1 °F 72% 30.12 in 10.0 mi WNW 23.0 mph 26.5 mph N/A   Mostly Cloudy
4:53 PM 19.9 °F 6.7 °F 12.9 °F 74% 30.14 in 10.0 mi WNW 13.8 mph - N/A   Scattered Clouds
5:53 PM 17.6 °F 3.7 °F 10.4 °F 73% 30.10 in 10.0 mi West 13.8 mph - N/A   Partly Cloudy
6:53 PM 16.0 °F 2.9 °F 10.0 °F 77% 30.17 in 10.0 mi West 11.5 mph - N/A   Clear
7:53 PM 15.1 °F 2.5 °F 10.0 °F 80% 30.17 in 10.0 mi WNW 10.4 mph - N/A   Clear
8:53 PM 14.0 °F 2.0 °F 9.0 °F 80% 30.18 in 10.0 mi West 9.2 mph - N/A   Clear
9:53 PM 14.0 °F 2.0 °F 8.1 °F 77% 30.18 in 10.0 mi West 9.2 mph - N/A   Clear
10:53 PM 12.0 °F -0.4 °F 7.0 °F 80% 30.18 in 10.0 mi WNW 9.2 mph - N/A   Clear
11:53 PM 12.9 °F 0.7 °F 7.0 °F 77% 30.19 in 10.0 mi WNW 9.2 mph - N/A   Scattered Clouds